CFG1306 MDPC-EDDF

Flight info

Callsign CFG1306
Flight time N/A
Altitude 31000
Route KATOK2T KATOK DCT JANMA DCT HANCY/M083F310 DCT NUBUS DCT KOZIK DCT 31N060W/M083F330 41N050W 45N040W/M083F350 46N030W 47N020W 47N015W DCT ETIKI UN480 REGHI/N0474F350 DCT OZNOH/N0473F360 DCT BULOX DCT TABOV DCT TSU DCT OQQAL DCT RANUX/N0469F370 DCT VALEK DCT LUTAX DCT DIK/N0476F350 T856 NIVNU/N0451F230 T847 IMCOM IMCOM1B
Aircraft B763/H-SDE3FGHIM3RWXY/LB1

Departure

Time N/A
Airport Punta Cana International Airport (MDPC)

Arrival

Time 2026-04-18 10:10
Airport Frankfurt Main Airport (EDDF)
Time Latitude Longitude Altitude Speed Heading
2026-04-18 09:27 49.06384 3.89777 35191 ft 479 kts 76°
2026-04-18 09:27 49.07985 3.99569 35194 ft 478 kts 76°
2026-04-18 09:28 49.09583 4.09404 35195 ft 478 kts 76°
2026-04-18 09:28 49.11189 4.19352 35193 ft 479 kts 76°
2026-04-18 09:29 49.12770 4.29198 35194 ft 478 kts 77°
2026-04-18 09:29 49.14668 4.38973 35204 ft 478 kts 67°
2026-04-18 09:30 49.17199 4.48309 35194 ft 478 kts 67°
2026-04-18 09:30 49.19733 4.57685 35196 ft 478 kts 67°
2026-04-18 09:31 49.22256 4.67044 35194 ft 478 kts 68°
2026-04-18 09:31 49.24790 4.76475 35194 ft 478 kts 68°
2026-04-18 09:32 49.27307 4.85882 35194 ft 478 kts 68°
2026-04-18 09:32 49.29816 4.95298 35192 ft 478 kts 68°
2026-04-18 09:33 49.32296 5.04642 35198 ft 478 kts 68°
2026-04-18 09:33 49.34800 5.14113 35198 ft 478 kts 68°
2026-04-18 09:34 49.37284 5.23548 35201 ft 478 kts 68°
2026-04-18 09:34 49.39751 5.32960 35205 ft 478 kts 68°
2026-04-18 09:35 49.42216 5.42397 35206 ft 477 kts 68°
2026-04-18 09:35 49.44661 5.51801 35204 ft 475 kts 68°
2026-04-18 09:36 49.45873 5.56475 35194 ft 463 kts 68°
2026-04-18 09:36 49.47044 5.61001 35189 ft 446 kts 68°
2026-04-18 09:36 49.49276 5.69653 35210 ft 438 kts 68°
2026-04-18 09:37 49.52456 5.77876 35227 ft 454 kts 48°
2026-04-18 09:37 49.57370 5.84234 35227 ft 467 kts 30°
2026-04-18 09:38 49.62907 5.89607 35189 ft 475 kts 31°
2026-04-18 09:38 49.68455 5.95136 35209 ft 474 kts 32°
2026-04-18 09:39 49.73945 6.00650 35211 ft 472 kts 32°
2026-04-18 09:39 49.79459 6.06211 35214 ft 473 kts 32°
2026-04-18 09:40 49.84949 6.11751 35215 ft 471 kts 30°
2026-04-18 09:40 49.90804 6.16293 35210 ft 471 kts 24°
2026-04-18 09:41 49.96715 6.20604 35218 ft 471 kts 23°
2026-04-18 09:41 50.02632 6.24905 35217 ft 470 kts 23°
2026-04-18 09:42 50.08609 6.29255 35213 ft 470 kts 23°
2026-04-18 09:42 50.14525 6.33571 35207 ft 471 kts 23°
2026-04-18 09:43 50.20515 6.37953 35207 ft 466 kts 23°
2026-04-18 09:43 50.23374 6.40052 35197 ft 450 kts 23°
2026-04-18 09:43 50.26178 6.42111 35186 ft 435 kts 23°
2026-04-18 09:44 50.31390 6.46758 35230 ft 442 kts 38°
2026-04-18 09:44 50.35530 6.54007 35229 ft 461 kts 57°
2026-04-18 09:45 50.38037 6.63343 35155 ft 462 kts 76°
2026-04-18 09:45 50.38615 6.68217 34611 ft 457 kts 81°
2026-04-18 09:45 50.39175 6.73133 34106 ft 454 kts 80°
2026-04-18 09:46 50.39770 6.77981 33614 ft 451 kts 79°
2026-04-18 09:46 50.40376 6.82796 33120 ft 447 kts 79°
2026-04-18 09:46 50.40984 6.87564 32614 ft 443 kts 78°
2026-04-18 09:46 50.41587 6.92265 32129 ft 446 kts 78°
2026-04-18 09:47 50.42201 6.97044 31655 ft 453 kts 78°
2026-04-18 09:47 50.42825 7.01910 31176 ft 459 kts 78°
2026-04-18 09:47 50.43454 7.06829 30688 ft 461 kts 78°
2026-04-18 09:47 50.44076 7.11703 30204 ft 460 kts 78°
2026-04-18 09:48 50.44690 7.16627 29727 ft 460 kts 80°
2026-04-18 09:48 50.44963 7.21630 29256 ft 460 kts 90°
2026-04-18 09:48 50.44701 7.26619 28798 ft 462 kts 100°
2026-04-18 09:48 50.43925 7.31443 28344 ft 462 kts 109°
2026-04-18 09:49 50.42636 7.36062 27884 ft 462 kts 120°
2026-04-18 09:49 50.40899 7.40235 27427 ft 461 kts 129°
2026-04-18 09:49 50.38732 7.43957 26759 ft 464 kts 138°
2026-04-18 09:49 50.36210 7.47064 26098 ft 458 kts 148°
2026-04-18 09:50 50.33454 7.49417 25514 ft 451 kts 158°
2026-04-18 09:50 50.30550 7.51012 24932 ft 443 kts 165°
2026-04-18 09:50 50.27604 7.52248 24336 ft 437 kts 168°
2026-04-18 09:50 50.24694 7.53736 23737 ft 435 kts 158°
2026-04-18 09:51 50.22041 7.55950 23160 ft 433 kts 148°
2026-04-18 09:51 50.19573 7.58563 22589 ft 430 kts 146°
2026-04-18 09:51 50.17176 7.61270 22009 ft 426 kts 144°
2026-04-18 09:51 50.14818 7.64026 21432 ft 423 kts 144°
2026-04-18 09:52 50.12625 7.66991 20855 ft 420 kts 135°
2026-04-18 09:52 50.10770 7.70600 20275 ft 418 kts 124°
2026-04-18 09:52 50.09384 7.74551 19710 ft 415 kts 116°
2026-04-18 09:52 50.08152 7.78583 19136 ft 411 kts 117°
2026-04-18 09:53 50.06952 7.82544 18566 ft 408 kts 116°
2026-04-18 09:53 50.05756 7.86514 18004 ft 405 kts 116°
2026-04-18 09:53 50.04561 7.90500 17434 ft 402 kts 116°
2026-04-18 09:53 50.03393 7.94398 16876 ft 399 kts 116°
2026-04-18 09:54 50.02225 7.98293 16311 ft 395 kts 116°
2026-04-18 09:54 50.01075 8.02128 15749 ft 392 kts 116°
2026-04-18 09:54 50.00173 8.06075 15182 ft 389 kts 102°
2026-04-18 09:54 49.99817 8.10168 14635 ft 385 kts 97°
2026-04-18 09:55 49.99480 8.14278 14060 ft 382 kts 97°
2026-04-18 09:55 49.99160 8.18341 13486 ft 379 kts 97°
2026-04-18 09:55 49.98838 8.22353 12915 ft 375 kts 97°
2026-04-18 09:55 49.98521 8.26360 12349 ft 372 kts 97°
2026-04-18 09:56 49.98205 8.30323 11782 ft 369 kts 97°
2026-04-18 09:56 49.97892 8.34245 11222 ft 365 kts 97°
2026-04-18 09:56 49.97584 8.38102 10723 ft 360 kts 97°
2026-04-18 09:56 49.97275 8.41919 10264 ft 353 kts 97°
2026-04-18 09:57 49.96971 8.45641 9893 ft 349 kts 97°
2026-04-18 09:57 49.96664 8.49404 9516 ft 347 kts 97°
2026-04-18 09:57 49.96361 8.53096 9140 ft 346 kts 97°
2026-04-18 09:57 49.96062 8.56783 8768 ft 344 kts 97°
2026-04-18 09:58 49.95763 8.60440 8397 ft 341 kts 97°
2026-04-18 09:58 49.95468 8.64063 8025 ft 339 kts 97°
2026-04-18 09:58 49.95173 8.67669 7651 ft 337 kts 98°
2026-04-18 09:58 49.94873 8.71305 7267 ft 334 kts 98°
2026-04-18 09:59 49.94580 8.74879 6887 ft 332 kts 98°
2026-04-18 09:59 49.94291 8.78431 6510 ft 331 kts 98°
2026-04-18 09:59 49.94003 8.81989 6131 ft 329 kts 98°
2026-04-18 10:00 49.93437 8.88956 5381 ft 325 kts 98°
2026-04-18 10:00 49.93152 8.92396 5153 ft 316 kts 98°
2026-04-18 10:00 49.92883 8.95666 5131 ft 298 kts 98°
2026-04-18 10:00 49.92891 8.98776 5003 ft 277 kts 75°
2026-04-18 10:01 49.93717 9.01265 4970 ft 253 kts 45°
2026-04-18 10:01 49.95150 9.02678 4935 ft 241 kts 14°
2026-04-18 10:01 49.96795 9.02739 4679 ft 238 kts 344°
2026-04-18 10:01 49.98329 9.01865 4428 ft 236 kts 336°
2026-04-18 10:02 49.99848 9.00883 4195 ft 235 kts 336°
2026-04-18 10:02 50.01343 8.99917 4167 ft 230 kts 336°
2026-04-18 10:02 50.02503 8.99165 4180 ft 233 kts 337°
2026-04-18 10:03 50.03017 8.98831 4182 ft 235 kts 336°
2026-04-18 10:03 50.04446 8.97686 4190 ft 224 kts 320°
2026-04-18 10:04 50.05509 8.96023 4191 ft 211 kts 308°
2026-04-18 10:04 50.06359 8.94241 4157 ft 202 kts 309°
2026-04-18 10:04 50.07261 8.92586 4177 ft 202 kts 309°
2026-04-18 10:04 50.08171 8.90875 4187 ft 206 kts 309°
2026-04-18 10:05 50.09090 8.89132 4175 ft 206 kts 308°
2026-04-18 10:05 50.09981 8.87425 4172 ft 204 kts 306°
2026-04-18 10:05 50.10609 8.85432 4023 ft 210 kts 282°
2026-04-18 10:05 50.10629 8.84022 3844 ft 210 kts 256°
2026-04-18 10:06 50.10225 8.82321 3653 ft 209 kts 247°
2026-04-18 10:06 50.09676 8.80204 3355 ft 213 kts 249°
2026-04-18 10:06 50.09148 8.78044 3057 ft 216 kts 249°
2026-04-18 10:06 50.08615 8.75843 2747 ft 214 kts 249°
2026-04-18 10:07 50.08105 8.73717 2395 ft 204 kts 249°
2026-04-18 10:07 50.07629 8.71726 2108 ft 190 kts 250°
2026-04-18 10:07 50.07182 8.69849 1909 ft 179 kts 249°
2026-04-18 10:07 50.06759 8.68074 1678 ft 171 kts 250°
2026-04-18 10:08 50.06353 8.66373 1430 ft 163 kts 250°
2026-04-18 10:08 50.05979 8.64808 1263 ft 151 kts 250°
2026-04-18 10:08 50.05623 8.63319 1029 ft 144 kts 250°
2026-04-18 10:08 50.05247 8.61876 805 ft 150 kts 249°
2026-04-18 10:09 50.04896 8.60370 670 ft 152 kts 252°
2026-04-18 10:09 50.04549 8.58849 467 ft 145 kts 250°
2026-04-18 10:09 50.04207 8.57414 367 ft 137 kts 250°
2026-04-18 10:09 50.03957 8.56378 356 ft 55 kts 248°
2026-04-18 10:10 50.03879 8.56030 353 ft 18 kts 266°
2026-04-18 10:10 50.03889 8.55823 352 ft 19 kts 279°
2026-04-18 10:10 50.03900 8.55711 352 ft 8 kts 278°
2026-04-18 10:10 50.03905 8.55659 352 ft 1 kts 277°
2026-04-18 10:11 50.03905 8.55653 352 ft 0 kts 277°
2026-04-18 10:11 50.03910 8.55591 353 ft 11 kts 278°
2026-04-18 10:11 50.03941 8.55558 353 ft 5 kts 30°
2026-04-18 10:12 50.03990 8.55701 354 ft 25 kts 70°
2026-04-18 10:12 50.04059 8.55983 356 ft 29 kts 70°
2026-04-18 10:12 50.04133 8.56291 359 ft 30 kts 70°
2026-04-18 10:12 50.04198 8.56562 362 ft 25 kts 70°
2026-04-18 10:13 50.04237 8.56728 364 ft 13 kts 70°
2026-04-18 10:13 50.04279 8.56913 366 ft 26 kts 71°
2026-04-18 10:13 50.04350 8.57219 369 ft 32 kts 70°
2026-04-18 10:13 50.04435 8.57559 372 ft 30 kts 69°
2026-04-18 10:14 50.04510 8.57873 374 ft 33 kts 70°
2026-04-18 10:14 50.04571 8.58036 376 ft 9 kts
2026-04-18 10:14 50.04638 8.57998 376 ft 15 kts 339°
2026-04-18 10:14 50.04683 8.57968 377 ft 7 kts 335°
2026-04-18 10:15 50.04729 8.57945 378 ft 7 kts
2026-04-18 10:15 50.04783 8.58002 378 ft 11 kts 56°
2026-04-18 10:15 50.04818 8.58130 378 ft 13 kts 69°
2026-04-18 10:15 50.04858 8.58298 379 ft 19 kts 69°
2026-04-18 10:16 50.04909 8.58513 377 ft 22 kts 68°
2026-04-18 10:16 50.04966 8.58742 375 ft 23 kts 71°
2026-04-18 10:16 50.04993 8.58895 374 ft 4 kts 123°
2026-04-18 10:16 50.04947 8.58932 373 ft 9 kts 158°
2026-04-18 10:17 50.04933 8.58940 373 ft 0 kts 159°